Regional Weather Roundup
Issued by NWS

Home | Current Version | Previous Version | Graphics & Text | Print | Product List | Glossary On
Versions: 1 2 3 4 5 6 7 8 9 10 11 12 13 14 15 16 17 18 19 20 21 22 23 24 25 26 27 28 29 30 31 32 33 34 35 36 37 38 39 40 41 42 43 44 45 46 47 48 49 50
000
ASUS43 KIND 311409
RWRIN

WEATHER ROUNDUP FOR INDIANA
NATIONAL WEATHER SERVICE INDIANAPOLIS IN
900 AM EST SAT JAN 31 2015

NOTE: "FAIR" INDICATES FEW OR NO CLOUDS BELOW 12,000 FEET WITH NO
SIGNIFICANT WEATHER AND/OR OBSTRUCTIONS TO VISIBILITY.

* - STATION DOES NOT REPORT WEATHER SUCH AS PRECIPITATION OR FOG.

+ - STATION NOT QUALITY CONTROLLED BY THE NATIONAL WEATHER SERVICE.
    USE DATA WITH CAUTION...ESPECIALLY DEWPOINT AND RELATIVE
    HUMIDITY OBSERVATIONS.

INZ001>003-010>013-019-020-311500-
NORTHWEST INDIANA

CITY           SKY/WX    TMP DP  RH WIND       PRES   REMARKS
GARY /AIRPORT/ PTCLDY    27  19  74 S9        30.27F WCI  17
KNOX *+        CLEAR     27  10  50 SW10      30.27F WCI  17
LA PORTE +     CLEAR     25  21  85 SW6       30.27F WCI  18
MICHIGAN CITY+ CLEAR     27  18  69 SW8       30.27S WCI  18
MONTICELLO +   PTCLDY    24  19  80 W8        30.30F WCI  15
RENSSELAER +   PTCLDY    27  25  93 S8        30.29S WCI  18
VALPARAISO     FAIR      24  19  81 S9        30.27F WCI  14

$$

LMZ046-743>745-311500-
SOUTHERN LAKE MICHIGAN

STATION/POSITION TIME  TEMP WIND        PRES
                       AIR  DIR/SP/G
                 (UTC) (F)  (DEG/KT/KT) (MB)
MICHIGAN CITY    1400   25  160/ 13/ 16   N/A

$$

INZ004-005-014>016-021>024-311500-
NORTH CENTRAL INDIANA

CITY           SKY/WX    TMP DP  RH WIND       PRES   REMARKS
ELKHART        CLEAR     23  16  74 SW8       30.27F WCI  14
GOSHEN         CLEAR     22  17  81 SW9       30.27F WCI  12
LOGANSPORT +   PTCLDY    27  21  80 SW9       30.31F WCI  17
PERU/GRISSOM   PTCLDY    24  18  80 S8        30.30S WCI  14
ROCHESTER +    CLEAR     28  21  74 SW7       30.30S WCI  21
SOUTH BEND     CLEAR     24  17  74 SW8       30.27F WCI  15
WARSAW +       CLEAR     23  18  80 SW3       30.29S

$$

INZ006>009-017-018-025>027-311500-
NORTHEAST INDIANA

CITY           SKY/WX    TMP DP  RH WIND       PRES   REMARKS
ANGOLA *+      SUNNY     18  14  86 S5        30.26F WCI  11
AUBURN +       MOSUNNY   21  18  86 S5        30.30S WCI  15
FORT WAYNE     MOSUNNY   22  18  85 S7        30.31S WCI  13
HUNTINGTON +   SUNNY     23  15  70 S3        30.31S

$$

INZ028-029-035-036-043>045-051>053-311500-
WEST CENTRAL INDIANA

CITY           SKY/WX    TMP DP  RH WIND       PRES   REMARKS
GREENCASTLE +  MOSUNNY   23  14  68 CALM      30.34S
LAFAYETTE      PTCLDY    24  18  77 SW3       30.32S
TERRE HAUTE    PTCLDY    25  19  78 S5        30.36R WCI  19

$$

INZ030>032-037>040-046>048-054>057-064-065-311500-
CENTRAL INDIANA

CITY           SKY/WX    TMP DP  RH WIND       PRES   REMARKS
ANDERSON       MOSUNNY   23  18  80 S6        30.34  WCI  16
CP ATTERBURY + MOSUNNY   19  18  93 CALM      30.37R
FRANKFORT +    PTCLDY    24  20  84 S5        30.33S WCI  19
GREENWOOD *+   MOSUNNY   23  16  74 S5        30.35S WCI  17
INDIANAPOLIS   CLOUDY    21  17  84 S7        30.33F WCI  12
-EAGLE CREEK   SUNNY     21  17  84 CALM      30.33S
KOKOMO *+      MOSUNNY   25  18  74 S7        30.32S WCI  17
MARION +       MOSUNNY   23  18  83 S8        30.32S WCI  13
MT COMFORT *+  SUNNY     23  14  68 S7        30.34S WCI  15
SHELBYVILLE    MOSUNNY   24  17  74 S9        30.35S WCI  14
ZIONSVILLE +   MOSUNNY   23  17  78 S5        30.33S WCI  17

$$

INZ033-034-041-042-049-050-058-059-311500-
EAST CENTRAL INDIANA

CITY           SKY/WX    TMP DP  RH WIND       PRES   REMARKS
MUNCIE         PTSUNNY   24  17  74 SW8       30.32S WCI  15

$$

INZ060-061-067>069-081>083-085>088-311500-
SOUTHWEST INDIANA

CITY           SKY/WX    TMP DP  RH WIND       PRES   REMARKS
EVANSVILLE     PTSUNNY   28  23  81 CALM      30.40R
HUNTINGBURG *+ CLOUDY    25  19  80 CALM      30.40R
WASHINGTON +   PTSUNNY   26  20  77 S6        30.38S WCI  20

$$

INZ062-063-066-070>080-084-089>092-311500-
SOUTH CENTRAL AND SOUTHEAST INDIANA

CITY           SKY/WX    TMP DP  RH WIND       PRES   REMARKS
BLOOMINGTON    MOSUNNY   20  18  92 CALM      30.35S
NORTH VERNON + SUNNY     23  19  86 CALM      30.37F
SEYMOUR +      MOSUNNY   25  19  80 SE3       30.38S

$$



USA.gov is the U.S. government's official web portal to all federal, state and local government web resources and services.